Mistral — TCCH — position and weather

sailwx.info

Track history (hours):
 
Tides and Currents Weather Stations Pressure Air Temp Water Temp Dewpoint Dewpoint Depression Visibility Wind Speed Wind Dir Waves Ship Positions

Mistral

Last reported at 2014-Jul-23 14:33 UTC. Time now 2014-Jul-23 15:31 UTC.
Position N 40°47' E 029°19'.

; draft 7.1 m.

Type: Ship. MMSI: 271000615.

Date/timePositionNaut miles runAvg speedWind from/ knotsBaromVisibWave heightAir tempDewpointWater temp
2014-Jul-23 14:33N 40°47' E 029°19'0 0.4
2014-Jul-23 13:33N 40°47' E 029°20'1 0.5
2014-Jul-23 12:33N 40°47' E 029°19'0 0.4
2014-Jul-23 11:33N 40°47' E 029°19'1 0.7
2014-Jul-23 10:33N 40°46' E 029°19'0 0.4
2014-Jul-23 09:33N 40°46' E 029°19'4 3.9
2014-Jul-23 08:31N 40°45' E 029°24'6 2.5
2014-Jul-23 06:14N 40°46' E 029°31'0 0.0
2014-Jul-22 19:20N 40°46' E 029°31'0 0.0
2014-Jul-22 18:32N 40°46' E 029°31'0 0.0
2014-Jul-22 15:26N 40°46' E 029°31'  
2014-Jul-20 01:29N 37°38' E 026°36'19 8.7
2014-Jul-19 23:18N 37°22' E 026°50'  
Track history (hours):
 
Tides and Currents Weather Stations Pressure Air Temp Water Temp Dewpoint Dewpoint Depression Visibility Wind Speed Wind Dir Waves Ship Positions

Mistral

Last reported at 2014-Jul-23 14:33 UTC. Time now 2014-Jul-23 15:31 UTC.
Position N 40°47' E 029°19'.

; draft 7.1 m.

Type: Ship. MMSI: 271000615.

Date/timePositionNaut miles runAvg speedWind from/ knotsBaromVisibWave heightAir tempDewpointWater temp
2014-Jul-23 14:33N 40°47' E 029°19'0 0.4
2014-Jul-23 13:33N 40°47' E 029°20'1 0.5
2014-Jul-23 12:33N 40°47' E 029°19'0 0.4
2014-Jul-23 11:33N 40°47' E 029°19'1 0.7
2014-Jul-23 10:33N 40°46' E 029°19'0 0.4
2014-Jul-23 09:33N 40°46' E 029°19'4 3.9
2014-Jul-23 08:31N 40°45' E 029°24'6 2.5
2014-Jul-23 06:14N 40°46' E 029°31'0 0.0
2014-Jul-22 19:20N 40°46' E 029°31'0 0.0
2014-Jul-22 18:32N 40°46' E 029°31'0 0.0
2014-Jul-22 15:26N 40°46' E 029°31'  
2014-Jul-20 01:29N 37°38' E 026°36'19 8.7
2014-Jul-19 23:18N 37°22' E 026°50'  

Dump ship's entire track history